Regional Weather Roundup
Issued by NWS

Home | Current Version | Previous Version | Text Only | Print | Product List | Glossary Off
Versions: 1 2 3 4 5 6 7 8 9 10 11 12 13 14 15 16 17 18 19 20 21 22 23 24 25 26 27

000
ASUS45 KBOU 221907
RWRCO

WEATHER ROUNDUP FOR COLORADO
NATIONAL WEATHER SERVICE DENVER/BOULDER CO
100 PM MDT WED OCT 22 2014

NOTE: "FAIR" INDICATES FEW OR NO CLOUDS BELOW 12000 FEET WITH NO
SIGNIFICANT WEATHER AND/OR OBSTRUCTIONS TO VISIBILITY.

COZ001>005-013-030-031-222000-
...NORTHWEST COLORADO...

CITY           SKY/WX    TMP DP  RH WIND       PRES   REMARKS
CRAIG          PTSUNNY   55  41  59 VRB6      30.21F
HAYDEN         PTSUNNY   52  39  62 NW9       30.21F
MEEKER         SUNNY     59  35  40 MISG      30.19F
MOUNT WERNER   NOT AVBL
STEAMBOAT SPGS MOSUNNY   52  40  64 W5        30.21F
WALDEN         CLOUDY    54  30  40 W13G21    30.21F
$$

COZ006>008-011-222000-
...WEST CENTRAL VALLEYS...

CITY           SKY/WX    TMP DP  RH WIND       PRES   REMARKS
GRAND JUNCTION MOSUNNY   63  46  54 S3        30.14F
MONTROSE       MOSUNNY   63  43  48 VRB5      30.18F
EAGLE          MOSUNNY   50  43  76 CALM      30.22F
RIFLE          SUNNY     58  44  60 CALM      30.16F
DELTA          MOSUNNY   68  44  42 CALM      30.15F
NUCLA          MOSUNNY   64  32  29 W10G16    30.21F
$$

COZ017>023-064>068-222000-
...SOUTHWEST COLORADO...

CITY           SKY/WX    TMP DP  RH WIND       PRES   REMARKS
DURANGO        MOSUNNY   61  45  55 CALM      30.22F
CORTEZ         SUNNY     67  42  40 S5        30.20F
PAGOSA SPRINGS MOSUNNY   60  36  40 SW7       30.26F
TELLURIDE      PTSUNNY   52  31  44 SW7G17    30.33S
WOLF CREEK PAS CLOUDY    34  32  93 SW16        N/A  WCI  23
$$

COZ009-010-012-014-032>034-037-058>063-222000-
...CENTRAL COLORADO...

CITY           SKY/WX    TMP DP  RH WIND       PRES   REMARKS
ASPEN          LGT RAIN  50  35  56 NW12G18   30.24S
BUENA VISTA    CLOUDY    57  30  36 W13G18    30.23F
COPPER MTN     CLOUDY    37  25  60 SW10G24   30.40F
BERTHOUD PASS  CLOUDY    30  28  93 MISG      30.40S
COTTONWOOD PAS PTSUNNY   50  30  46 W7        30.31F
GUNNISON       MOSUNNY   52  37  58 CALM      30.28F
KREMMLING      MOSUNNY   55  39  54 SW12        N/A
LEADVILLE      MOSUNNY   44  29  55 NW9G17    30.28F
MONARCH PASS   FOG       32  32 100 W36G44    30.49F VSB<1/4 WCI  16
SALIDA         MOSUNNY   61  34  36 W17G26    30.29F
SUNLIGHT       PTSUNNY   43  39  87 CALM      30.37F
WILKERSON PASS NOT AVBL
$$

COZ069>075-222000-
...SAN LUIS VALLEY/SANGRE DE CRISTO MOUNTAINS...

CITY           SKY/WX    TMP DP  RH WIND       PRES   REMARKS
ALAMOSA        SUNNY     60  30  32 VRB5      30.22F
LA VETA PASS   SUNNY     52  32  46 S12G18    30.33F
SAGUACHE       MOSUNNY   59  34  38 S6        30.24F
$$

COZ035-036-038>040-222000-
...NORTHERN COLORADO FRONT RANGE...

CITY           SKY/WX    TMP DP  RH WIND       PRES   REMARKS
DENVER INTL AP PTSUNNY   68  38  33 SE3       30.09F
DMNS CITY PARK   N/A     69  34  28 NE1G7     30.07F
AURORA         PTSUNNY   67  35  30 NW7       30.10F
FRONT RANGE AP NOT AVBL
ERIE MUNI ARPT MOSUNNY   68  35  29 CALM      30.07F
BOULDER MUN AP MOSUNNY   63  37  39 NE5       30.07F
CENTENNIAL     PTSUNNY   67  32  27 NW7       30.10F
BROOMFIELD     PTSUNNY   66  37  34 CALM      30.10F
FORT COLLINS   PTSUNNY   66  45  45 SE7       30.08F
LONGMONT       PTSUNNY   71  40  32 CALM      30.09F
$$

COZ041-046-047-076>085-087-088-222000-
...PIKES PEAK/PALMER DIVIDE AND SOUTHERN FOOTHILLS...

CITY           SKY/WX    TMP DP  RH WIND       PRES   REMARKS
COLO. SPRINGS  MOSUNNY   65  39  38 S9        30.14F
A. F. ACADEMY  PTSUNNY   63  37  37 SE7       30.14F
ELLICOTT       MOSUNNY   64  36  35 SW6       30.13F
FALCON         MOSUNNY   64  34  32 S7        30.18F
FORT CARSON    MOSUNNY   67  40  36 SE12      30.11F
LIMON          SUNNY     66  38  35 E6        30.11F
MONUMENT HILL  MOSUNNY   64  28  25 W14       30.15F
TRINIDAD       SUNNY     67  40  37 VRB5      30.13F
$$

COZ042>045-048>051-090-091-222000-
...NORTHEAST COLORADO...

CITY           SKY/WX    TMP DP  RH WIND       PRES   REMARKS
GREELEY ARPT   PTSUNNY   68  43  40 S5        30.08F
AKRON          SUNNY     66  38  35 N8        30.08F
BURLINGTON     SUNNY     70  43  37 N12       30.06F
WRAY           MOSUNNY   72  40  31 N8G16     30.05F
STERLING       SUNNY     72  41  33 N6        30.06F
HOLYOKE        MOSUNNY   73  37  27 N15       30.05F
FORT MORGAN    SUNNY     69  37  30 E5        30.08F
$$

COZ086-089-092>099-222000-
...SOUTHEAST COLORADO...

CITY           SKY/WX    TMP DP  RH WIND       PRES   REMARKS
PUEBLO         MOSUNNY   71  40  32 S7        30.07F
LA JUNTA       SUNNY     71  44  37 SE3       30.06F
LAMAR          SUNNY     75  45  34 N9        30.02F
SPRINGFIELD      N/A     72  43  35 N10       30.05F
$$



USA.gov is the U.S. government's official web portal to all federal, state and local government web resources and services.